Orbital Elements at Epoch 2459200.5 (2020-Dec-17.0) TDB
Reference: JPL 23 (heliocentric ecliptic J2000)
Element | Value | Uncertainty (1-sigma) | Units |
e | .06504476229860816 | 4.0797e-08 | |
a | 2.593351181432843 | 1.7851e-08 | au |
q | 2.424667270279729 | 1.0932e-07 | au |
i | 15.5842397719736 | 6.2771e-06 | deg |
node | 20.57978006470836 | 1.5926e-05 | deg |
peri | 83.21040299479634 | 8.5225e-05 | deg |
M | 101.4900080807241 | 7.7522e-05 | deg |
tp | 2458770.457666272510 (2019-Oct-13.95766627) | 0.00032971 | TDB |
period | 1525.423468473448 4.18 | 1.575e-05 4.312e-08 | d yr |
n | .2360000402775148 | 2.4367e-09 | deg/d |
Q | 2.762035092585957 | 1.9012e-08 | au |
|
| | Orbit Determination Parameters
Additional Information
|